Dewpoint
19 18 18 18 17 16 16 13 14 13 11 12 11 10 7 5 5 6 7 8 7 7 7 19 27 48 53 55 57 59 60 60 59 59 59 59 59 60 60 59 59 59 60 62 63 63 63 63 63 63 63 63 63 63 64 63 64 64 64 64 63 64 64 64 64 64 64 63 63 64 63 62 63 62 61 60 60 59 59 59 59 59 59 59 60 60
19 18 18 18 19 17 16 17 18 14 13 8 9 9 8 5 4 5 5 6 7 11 19 32 44 48 53 55 57 58 59 58 58 58 58 59 59 60 60 60 60 60 62 62 62 63 63 63 63 63 63 63 62 63 63 63 63 64 64 64 64 64 64 64 64 64 64 64 64 63 63 62 62 61 59 58 58 58 58 58 57 57 57 57 58 58
18 17 18 19 20 17 16 16 15 14 14 12 9 9 8 6 7 7 8 10 9 6 23 43 43 49 53 55 57 58 58 58 58 58 58 58 59 59 60 60 60 60 60 61 62 62 63 63 63 63 63 63 63 63 63 63 64 64 64 64 64 64 64 64 64 64 63 63 64 63 62 61 60 60 58 57 57 57 55 56 56 56 56 55 55 56
17 16 21 20 20 15 14 15 14 13 18 16 12 10 8 9 6 7 8 44 47 19 42 46 43 49 54 56 56 58 58 58 59 59 59 59 58 59 59 60 60 60 60 60 61 61 63 63 63 63 62 63 63 62 63 63 63 64 64 64 64 63 63 64 64 64 63 64 63 62 61 60 58 56 56 56 55 55 54 54 54 55 55 54 54 54
16 17 21 20 20 18 14 14 13 14 13 19 12 13 13 7 6 7 6 42 48 50 49 47 47 48 52 52 53 55 57 57 58 58 58 59 59 59 60 60 60 60 60 60 60 61 62 62 62 62 62 63 62 63 63 63 63 63 64 64 64 63 63 63 64 64 64 62 61 59 58 57 56 56 55 54 54 55 54 53 53 53 54 54 54 54
18 18 20 20 20 19 14 12 13 13 12 15 14 10 9 10 12 15 38 36 38 44 48 38 31 39 49 52 53 54 55 55 56 56 57 58 58 59 59 59 60 60 60 60 61 61 62 62 62 62 63 62 63 63 63 64 64 64 64 64 64 63 63 63 63 64 63 61 59 58 57 57 56 54 54 53 52 53 52 51 52 52 53 53 53 53
19 19 20 20 20 19 18 11 12 12 12 13 13 10 10 10 11 11 22 27 23 25 41 43 15 27 48 49 52 53 53 54 55 55 56 57 57 58 58 59 60 60 60 60 61 62 62 62 62 62 62 63 62 63 64 64 64 64 64 64 64 63 63 63 63 64 63 60 60 59 58 58 56 55 54 54 53 52 52 52 51 51 52 51 52 52
17 18 17 18 20 19 19 18 16 12 12 10 12 10 9 9 9 12 26 26 29 32 46 44 26 33 40 47 51 53 53 53 53 54 55 56 57 57 58 59 60 60 60 60 61 61 62 62 62 62 62 63 63 63 64 64 64 64 64 64 63 63 63 63 64 64 62 60 60 59 59 58 56 54 53 53 52 52 52 50 50 50 50 50 51 51
18 17 16 14 20 19 18 18 14 11 10 11 10 9 9 8 8 9 14 29 33 41 37 42 40 29 34 42 50 52 50 51 52 53 54 55 56 57 57 58 59 60 60 60 60 61 62 62 62 62 62 63 63 64 64 64 64 64 64 63 63 62 63 63 64 63 62 61 60 60 58 57 54 53 53 53 53 51 51 49 49 49 49 49 50 50
16 16 16 14 17 19 19 15 11 10 9 8 10 10 12 9 10 8 10 11 29 30 32 39 40 22 28 41 49 52 50 50 51 52 53 54 55 56 57 57 59 60 60 60 60 61 62 62 62 62 63 63 63 64 64 64 64 64 63 62 62 62 63 63 64 63 62 61 60 59 57 54 54 53 52 51 50 49 49 48 48 48 48 48 49 49
17 24 21 15 14 18 18 17 11 9 10 10 10 9 9 14 15 26 18 26 27 23 25 36 40 28 24 37 47 47 48 50 51 52 53 54 54 56 56 57 58 60 60 60 60 61 61 62 63 63 62 63 64 64 64 63 63 63 62 62 62 63 63 63 63 62 61 61 59 58 55 54 53 52 51 50 49 48 48 47 48 47 47 48 48 49
14 14 20 17 22 17 19 16 11 10 10 8 7 8 7 12 12 14 16 20 9 10 18 32 40 33 24 27 44 49 51 50 50 50 51 53 54 55 56 57 58 60 60 60 60 60 61 62 62 63 62 63 63 63 63 63 62 62 62 62 61 61 62 63 63 62 61 60 59 57 55 54 53 52 51 49 48 48 47 47 47 47 47 47 47 47
13 13 13 13 28 16 16 14 11 10 10 7 10 10 7 8 7 3 11 6 8 6 11 31 39 33 31 28 42 48 49 51 50 50 51 52 53 54 56 56 58 59 60 60 60 60 61 61 61 62 62 63 62 62 63 62 62 62 62 61 61 61 62 63 62 62 61 59 58 57 55 55 54 52 50 49 48 48 47 46 46 46 46 46 46 46
13 15 12 12 16 20 16 14 9 8 9 7 6 10 6 6 4 3 6 10 12 14 17 36 38 32 32 35 40 47 49 50 51 51 52 53 54 54 55 56 58 59 60 60 60 60 60 61 61 62 62 62 62 62 62 62 62 62 62 61 60 61 62 62 62 61 60 59 58 57 56 56 53 52 50 49 48 47 47 47 46 46 46 46 46 46
9 10 11 11 11 16 15 15 12 13 10 7 7 6 9 6 5 4 6 6 8 9 21 34 29 27 22 27 39 47 49 49 50 51 52 53 54 55 56 56 58 59 60 60 60 60 60 61 61 61 62 62 62 62 62 62 62 62 61 61 61 61 61 62 61 60 59 58 58 58 57 54 52 51 50 49 48 47 46 46 46 46 46 46 46 46
9 13 16 15 14 15 13 15 12 8 9 7 6 8 8 6 18 7 15 12 15 21 25 31 25 27 26 34 43 45 46 47 51 52 53 53 54 55 56 56 57 59 59 60 60 60 61 61 61 61 62 62 62 62 62 62 61 61 61 61 61 60 60 60 60 59 58 58 57 56 54 53 53 52 50 50 49 47 47 46 46 46 46 46 46 47
14 13 17 15 14 14 14 14 13 11 11 11 5 6 6 17 21 12 11 21 17 15 12 23 31 33 37 36 40 45 45 47 51 52 52 53 54 55 55 56 56 58 59 60 60 60 61 61 61 61 61 61 61 62 61 61 61 60 60 60 59 59 59 59 58 57 56 56 55 54 53 52 51 50 48 47 47 47 47 46 46 46 46 46 45 46
12 17 20 13 12 13 14 13 12 11 15 6 6 7 16 20 17 11 5 13 12 10 11 26 27 31 26 25 42 45 45 48 50 51 52 53 54 54 55 56 56 58 59 59 60 61 61 61 61 61 61 61 61 61 61 60 60 59 59 59 58 57 57 56 55 55 55 54 53 53 52 51 50 49 48 47 46 46 46 46 46 46 46 45 46 46
19 11 13 13 13 13 14 12 11 8 9 7 7 13 5 6 5 14 12 5 10 9 8 22 26 30 28 26 43 43 45 48 49 51 52 52 53 54 55 56 57 58 59 59 60 60 61 61 61 61 61 61 61 61 60 59 58 58 57 57 57 56 55 54 54 54 53 53 53 52 51 50 49 48 47 46 46 46 45 45 45 45 45 45 46 46
23 14 18 17 12 13 10 10 13 10 9 8 8 6 12 13 11 10 15 16 16 7 12 17 27 25 33 31 42 42 45 48 49 51 51 52 53 54 55 56 57 57 58 59 59 60 60 61 61 61 61 60 60 59 58 57 57 56 56 55 54 54 53 53 53 53 52 52 51 50 50 49 48 47 46 46 45 45 45 45 45 44 44 44 45 42
17 22 13 19 13 12 10 10 11 11 9 6 7 7 10 14 16 6 21 10 13 10 10 15 19 26 32 35 41 43 45 48 50 51 52 52 53 54 55 56 57 57 58 59 59 60 60 60 61 61 61 60 59 57 57 56 55 55 54 53 53 52 52 52 52 51 51 51 50 49 48 47 47 46 46 45 45 45 45 45 45 43 43 43 42 42
16 18 15 24 13 11 12 11 10 10 8 6 8 9 6 7 10 4 8 16 18 12 8 18 17 26 30 39 40 43 46 48 50 51 51 52 53 54 55 56 57 57 58 59 59 59 60 60 60 60 60 59 57 56 55 55 54 53 53 52 52 51 51 50 50 50 50 49 49 48 47 46 46 46 45 45 45 45 44 43 42 42 41 41 41 41
21 26 20 16 17 13 15 9 9 8 7 6 6 6 9 14 14 7 5 10 12 14 25 26 16 21 30 36 42 43 47 48 50 51 51 52 53 54 55 56 57 57 58 59 59 59 60 59 59 59 59 58 56 55 55 54 53 53 52 51 51 50 50 50 50 50 49 48 47 47 46 46 45 45 44 44 44 43 42 42 42 42 40 40 40 42
26 20 17 17 19 18 17 12 10 8 6 5 5 9 9 11 14 11 16 19 12 17 13 11 9 18 28 37 42 45 47 47 48 49 49 49 51 53 54 56 56 57 58 59 59 59 59 59 58 58 57 57 55 54 54 53 53 52 51 51 50 50 49 49 49 49 48 47 46 46 45 45 45 44 44 43 43 42 41 41 41 41 40 40 40 40
16 23 17 17 13 9 9 8 7 8 6 10 9 11 8 10 14 23 21 18 6 16 16 14 8 14 28 39 45 47 48 49 50 49 51 51 53 54 55 56 56 57 58 59 59 59 58 58 57 57 56 55 55 54 53 53 52 51 51 50 50 49 49 49 49 47 46 46 45 45 45 44 44 43 43 43 42 41 40 40 40 41 39 39 39 39
18 25 19 15 10 8 7 7 8 7 7 12 11 7 8 6 15 16 9 14 10 19 15 11 12 18 24 40 45 46 48 47 48 49 50 52 53 54 55 56 56 57 58 58 58 58 57 57 57 56 55 55 54 53 53 52 51 51 51 50 50 49 49 48 48 47 46 45 45 45 44 43 43 43 42 42 41 40 39 40 39 39 40 38 38 38
24 31 25 23 19 16 13 13 14 13 10 7 9 7 9 8 12 16 20 15 13 18 16 19 17 15 19 38 44 46 47 48 48 49 50 51 53 54 55 56 56 57 57 58 58 58 58 57 56 55 55 54 54 53 52 52 51 51 50 50 50 49 48 48 47 46 45 45 44 43 43 42 42 42 42 41 40 40 39 39 39 38 38 39 38 38
30 25 28 27 24 21 20 16 18 12 8 9 10 12 11 14 19 17 14 14 21 18 13 23 26 23 23 31 41 45 46 47 48 49 50 51 52 54 55 56 55 57 57 57 57 57 57 56 56 55 54 54 53 53 52 51 51 51 50 49 49 48 48 47 46 45 45 44 44 43 42 42 42 42 41 40 40 39 38 38 38 38 39 39 37 37
33 25 29 27 26 25 24 23 18 11 7 8 8 14 14 18 20 17 16 20 21 15 15 23 29 27 28 32 37 45 47 48 49 50 51 52 53 54 55 56 56 56 57 57 57 57 56 56 55 55 54 53 53 52 52 51 51 51 50 49 48 48 47 46 46 45 44 43 43 42 42 42 42 42 42 40 39 38 38 38 38 38 38 38 38 39
28 26 27 27 25 25 26 23 21 11 7 9 10 11 13 19 20 19 19 26 20 18 17 19 31 29 27 30 38 43 46 47 49 50 51 52 53 54 55 55 56 56 56 56 56 57 56 56 55 55 53 52 52 52 51 51 50 50 50 49 48 47 47 46 46 44 44 43 43 42 42 42 42 41 40 39 38 38 38 38 38 37 37 36 36 36
25 25 32 29 23 23 26 32 28 18 13 11 9 8 11 16 19 18 20 26 29 28 31 28 29 27 32 38 43 45 48 50 50 50 51 52 53 54 55 55 56 56 56 56 56 56 56 56 55 54 53 52 52 51 51 51 50 50 49 48 48 47 46 46 45 45 43 43 42 42 41 41 41 40 39 39 38 38 37 37 37 36 36 35 35 35
30 28 30 26 19 22 24 25 23 18 15 12 12 13 13 19 17 20 20 27 24 22 30 31 30 30 33 41 46 48 49 49 49 50 51 52 53 54 54 55 55 56 56 56 56 56 56 55 55 54 53 52 52 51 51 50 50 49 48 48 47 46 46 45 44 44 43 42 42 41 41 41 41 40 39 39 38 37 37 36 35 35 35 35 35 36
32 26 22 20 19 18 25 27 20 17 15 13 12 16 19 20 21 24 22 28 28 32 31 24 27 33 34 45 46 46 48 48 49 50 51 52 53 54 54 55 55 56 56 56 56 56 56 55 55 54 53 52 51 51 51 50 49 49 48 48 47 47 45 45 44 43 42 42 41 41 41 40 40 40 39 39 38 37 36 35 35 34 34 34 35 34
31 27 23 26 18 19 25 25 20 13 5 10 21 26 23 19 21 19 18 24 24 33 31 28 27 34 42 45 45 46 48 49 50 51 53 53 53 54 54 55 55 56 56 56 56 56 56 55 55 54 53 52 51 51 50 50 49 49 49 48 48 46 45 44 44 43 42 41 41 40 40 40 40 40 39 39 37 36 35 34 34 34 34 35 34 32
30 27 22 26 21 19 22 17 14 6 10 23 30 32 30 32 24 23 29 29 31 33 33 33 36 41 45 44 44 46 46 48 50 51 52 54 54 54 54 55 55 55 56 56 56 56 56 55 55 54 53 52 51 51 50 49 49 49 49 48 47 46 45 44 43 42 42 41 40 40 40 40 40 40 39 38 36 35 34 33 33 33 34 32 31 32
25 23 23 22 21 20 17 11 5 8 22 30 31 35 36 31 30 30 26 28 33 35 34 33 36 40 43 43 45 46 47 49 50 49 51 53 54 54 54 54 55 55 55 56 56 56 56 55 55 54 53 52 51 50 50 49 49 48 48 48 47 46 44 44 43 42 41 41 40 39 39 40 40 40 39 37 35 33 33 33 32 32 33 32 32 32
32 27 25 21 24 17 15 15 16 24 25 26 27 28 28 25 24 23 18 24 30 33 34 33 35 41 42 44 47 48 48 48 46 48 49 52 53 53 54 55 55 55 56 56 56 56 56 55 55 54 53 52 51 50 50 49 48 48 47 47 46 45 44 43 42 42 41 40 40 39 39 40 40 40 38 37 35 34 34 34 33 32 33 31 31 31
32 25 27 22 21 23 19 19 18 17 15 24 28 32 34 34 31 29 26 23 30 33 36 34 40 42 44 45 47 48 47 46 43 46 50 51 53 52 53 52 53 54 55 55 55 55 55 55 54 53 52 51 51 50 50 49 48 47 47 46 46 45 44 43 42 42 41 41 41 41 39 40 40 40 39 36 35 33 33 32 32 32 33 30 30 30
32 30 27 27 21 17 18 18 14 13 16 25 27 30 33 35 36 31 24 19 26 32 36 36 41 42 45 46 47 47 44 40 42 44 49 51 52 53 53 53 54 54 55 55 55 55 55 54 53 52 52 51 50 50 49 48 48 47 46 46 45 46 44 43 42 42 41 41 41 41 42 42 42 41 40 37 36 35 34 33 32 33 32 31 30 30
26 23 25 24 20 17 15 15 14 14 18 26 30 33 35 36 34 19 12 14 29 33 36 39 42 44 44 45 47 46 41 35 41 42 48 52 53 53 54 53 53 53 53 54 55 55 54 54 53 52 51 50 50 50 49 48 47 47 46 46 45 45 44 44 44 42 42 42 42 40 41 42 42 41 40 38 37 36 35 35 35 33 31 30 29 31
21 22 24 20 17 18 17 14 15 20 28 32 34 37 39 37 23 16 13 23 31 34 37 38 42 44 46 46 47 43 44 42 43 47 51 52 52 52 52 52 53 54 53 54 54 51 53 53 53 52 51 50 50 49 48 48 47 47 46 46 45 44 45 45 45 43 41 41 41 42 42 42 42 41 40 39 38 38 38 36 34 33 31 30 31 32
20 20 19 21 20 15 15 16 17 21 27 33 38 40 40 21 13 12 25 31 36 39 39 39 42 44 47 48 48 46 45 45 48 48 51 52 53 53 53 52 52 52 52 52 51 52 53 53 52 52 51 50 49 49 48 48 47 47 46 45 45 45 45 45 44 44 42 40 40 40 40 40 40 40 40 40 39 39 38 37 35 33 31 31 31 32
25 18 18 18 19 19 17 16 17 19 25 40 40 31 33 24 25 28 34 39 39 39 41 42 41 43 46 48 47 46 44 45 46 48 49 50 51 52 52 52 52 52 52 51 51 52 52 52 52 52 51 50 49 48 48 48 47 47 46 45 45 45 45 43 42 41 41 40 40 40 40 41 41 41 41 40 40 39 38 38 36 35 33 32 32 32
27 18 19 19 23 18 16 15 19 27 34 38 37 26 36 32 35 35 42 41 42 41 42 41 41 40 45 46 46 46 43 44 46 46 48 49 50 50 50 51 51 51 51 51 52 52 52 52 51 51 51 49 48 48 48 48 47 47 46 46 45 45 44 43 42 41 40 40 41 42 42 42 42 42 42 41 40 39 38 38 37 36 34 32 32 32
29 25 26 21 24 25 23 23 28 32 36 39 39 40 40 43 40 38 42 42 42 42 42 43 44 42 42 45 44 45 45 44 45 47 48 49 49 51 51 51 52 52 52 51 51 51 51 52 51 51 49 48 48 48 48 48 47 46 46 46 45 44 43 43 42 42 42 42 42 42 42 42 41 41 40 40 39 39 38 38 38 36 36 35 34 34
36 35 33 35 32 33 34 33 38 39 40 41 42 42 43 44 44 43 44 44 43 43 42 45 45 44 43 43 45 44 44 43 45 46 47 48 49 49 49 50 50 50 50 50 50 50 51 51 51 50 48 47 47 47 47 47 47 46 46 46 45 45 44 42 41 41 42 42 42 43 42 41 40 40 41 39 39 39 38 38 38 37 36 36 35 35
34 36 33 32 34 34 31 37 37 39 41 42 42 42 43 44 43 43 44 43 44 44 44 44 43 44 44 44 44 44 42 43 45 45 47 47 49 49 50 50 49 50 50 50 50 49 51 50 50 49 48 46 46 47 47 47 47 47 47 45 45 45 44 42 41 41 42 42 42 43 41 40 39 38 38 39 38 39 39 38 37 37 37 36 36 36
31 36 32 32 32 32 33 37 38 40 41 42 42 41 42 43 44 44 44 44 44 44 44 45 44 44 44 45 44 45 44 43 45 45 46 46 48 48 49 49 49 48 48 49 49 50 50 50 49 48 47 46 46 46 46 46 46 46 46 45 44 43 42 41 41 41 40 40 41 40 40 40 37 39 38 38 38 37 37 37 37 37 36 37 36 36
34 36 28 33 34 35 37 39 39 40 41 42 42 42 42 42 43 44 44 44 44 45 45 45 44 44 43 44 43 43 45 45 45 45 46 47 47 48 48 48 48 48 48 49 49 49 50 50 49 48 47 46 46 46 46 46 46 46 45 44 43 43 44 43 40 40 39 39 39 38 38 38 39 40 38 37 37 37 37 37 37 36 36 37 37 36
34 31 34 33 32 32 34 37 39 34 32 39 41 42 43 44 44 43 44 44 44 44 44 45 44 44 44 43 44 44 45 45 45 45 46 46 47 47 47 48 48 48 48 48 49 49 49 49 49 47 47 46 46 46 45 45 45 45 44 43 42 42 41 41 40 39 38 38 38 38 38 38 37 37 37 36 36 37 37 35 36 35 35 35 36 35
34 34 33 28 31 29 33 37 39 37 37 40 42 42 43 43 43 43 43 42 43 43 43 44 44 44 44 43 44 44 43 45 45 45 46 45 46 46 48 48 48 48 48 48 48 48 48 48 48 47 46 45 45 45 45 45 45 43 42 42 41 41 41 40 39 39 38 37 37 38 38 38 39 40 41 40 36 36 36 35 35 34 35 35 35 35